Location: Libas
(9.8833°N, 125.9833°E)
Time: 20:28:00
(UTC+00:00)

Cosmos 1953 - Pass Details

Date: 27 October 2020
Orbit: 540 x 556 km, 82.5° (Epoch: 25 November)

Event Time Altitude Azimuth Distance (km) Brightness Sun altitude
Exits shadow 19:58:40 52° 213° (SSW) 687 2.6 -21.8°
Drops below altitude 10° 20:01:55 10° 184° (S) 1,831 5.0 -21.0°
Sets 20:04:06 0° 181° (S) 2,726 6.0 -20.5°
